STARLINK-30495, 57968

Orbit data source: Space-Track

STARLINK-30495, 57968 is a payload satellite owned by SpaceX/Seattle (US) in LEO that was launched on Sat, 30 Sep 2023 UTC via an FALCON 9 launch vehicle from the Air Force Eastern Test Range (AFETR). Payload-class satellites include a variety of spacecraft equipped with specific instruments for various scientific and technological missions. These include communications satellites like Starlink; space stations such as the ISS; scientific satellites like the Hubble; Earth observation satellites from companies like Planet Labs, Umbra, and HawkEye 360; GPS; miniature CubeSats for education and research; and military/defense satellites.

Loading next visibility...
Identifier
57968, 2023-151E
Orbit
LEO
Country
Flag of USUS
Related business
Manufacturer
SpaceX/Seattle
Mission
Operational Commercial Communications
Bus & Motor
STARLINK V2M, Unknown motor
Mass
730 kg wet, ~700 kg dry
Launch date (UTC)
2023-09-30 (3 years ago)
Launch vehicle
FALCON 9
Launch site
Air Force Eastern Test Range (AFETR)
Object type
Payload
Rocket body
Debris
Shape & HBR
Box + 2 Pan, 17.7 m
Radar Cross Section
33.884 m², Large (>1 m²)

Expand to show TLE details & history
Last TLE update: 1 day ago

TLE from 1 day ago
0 STARLINK-30495
1 57968U 23151E   26174.99114817  .00000004  00000-0  96552-5 0  9993
2 57968  43.0022  95.6857 0001308 261.3909  98.6794 15.27576471152028
Epoch: 2026-06-23T23:47Z
TLE epoch observation values (Epoch: 2026-06-23T23:47:15.201Z)
Latitude
-0.00007°
Longitude
-173.28249°
Altitude
482.971 km
Speed
7.626 km/s
True Right ascension
06h 22m 44s
True Declination
0° 00' 00"
Sunlit
Object was in daylight at epoch
Visualization orbit readout
Latitude
Unknown
Longitude
Unknown
Altitude
Unknown
Speed
Unknown
Apparent Right ascension
Unknown
Apparent Declination
Unknown
Sunlit
N/A
Visualization observer readout
Local Sidereal Time
13:36:46
Azimuth
Unknown
Elevation
Unknown
Doppler factor
Unknown
Orbital elements
Apogee altitude
485.902 km
Perigee altitude
484.107 km
Semi-major axis
6,863.141 km
Eccentricity
0.00013
Inclination
43.0022°
RAAN
95.6857°
Arg. of periapsis
261.3909°
True anomaly
98.69422°
Mean anomaly
98.6794°
Eccentric anomaly
98.68681°
Mean motion
3.81732 °/min
Orbital period
94.31 mins
BSTAR
0.0000096552
Loading maneuver chart data...
Computing Atmospheric mass density...
Loading historical data...
Loading historical data...
Loading historical data...
Loading historical data...
Loading historical data...
Loading historical data...
Loading historical data...

Documentation

Showing up to 5 results
|